Time,TemperatureF,DewpointF,PressureIn,WindDirection,WindDirectionDegrees,WindSpeedMPH,WindSpeedGustMPH,Humidity,HourlyPrecipIn,Conditions,Clouds,dailyrainin,SolarRadiationWatts/m^2,SoftwareType,DateUTC
2013-07-28 00:09:00,70.4,68.0,29.94,NNW,332,1.0,2.0,93,0.00,,,0.00,0,weatherlink.com 1.10,2013-07-28 05:09:00,
2013-07-28 00:24:00,71.4,68.0,29.95,North,360,5.0,5.0,89,0.00,,,0.00,0,weatherlink.com 1.10,2013-07-28 05:24:00,
2013-07-28 00:39:00,72.4,67.0,29.95,NW,309,0.0,4.0,83,0.00,,,0.00,0,weatherlink.com 1.10,2013-07-28 05:39:00,
2013-07-28 00:54:00,72.5,66.0,29.95,NNE,31,0.0,2.0,81,0.00,,,0.00,0,weatherlink.com 1.10,2013-07-28 05:54:00,
2013-07-28 01:09:00,72.2,66.0,29.95,NNE,33,2.0,2.0,81,0.00,,,0.00,0,weatherlink.com 1.10,2013-07-28 06:09:00,
2013-07-28 01:24:00,71.8,66.0,29.96,NNE,33,0.0,2.0,82,0.00,,,0.00,0,weatherlink.com 1.10,2013-07-28 06:24:00,
2013-07-28 01:39:00,71.4,66.0,29.95,NNE,33,0.0,2.0,82,0.00,,,0.00,0,weatherlink.com 1.10,2013-07-28 06:39:00,
2013-07-28 01:54:00,71.0,65.0,29.94,NNE,33,0.0,1.0,82,0.00,,,0.00,0,weatherlink.com 1.10,2013-07-28 06:54:00,
2013-07-28 02:09:00,70.4,65.0,29.95,NNE,33,0.0,0.0,84,0.00,,,0.00,0,weatherlink.com 1.10,2013-07-28 07:09:00,
2013-07-28 02:25:00,69.7,65.0,29.95,NNE,33,0.0,1.0,85,0.00,,,0.00,0,weatherlink.com 1.10,2013-07-28 07:25:00,
2013-07-28 02:40:00,69.1,65.0,29.96,NNE,33,0.0,0.0,85,0.00,,,0.00,0,weatherlink.com 1.10,2013-07-28 07:40:00,
2013-07-28 02:55:00,68.8,65.0,29.96,NNE,33,0.0,0.0,86,0.00,,,0.00,0,weatherlink.com 1.10,2013-07-28 07:55:00,
2013-07-28 03:10:00,68.5,65.0,29.95,NNE,33,0.0,1.0,87,0.00,,,0.00,0,weatherlink.com 1.10,2013-07-28 08:10:00,
2013-07-28 03:25:00,68.5,65.0,29.95,NNE,33,1.0,2.0,87,0.00,,,0.00,0,weatherlink.com 1.10,2013-07-28 08:25:00,
2013-07-28 03:40:00,68.6,64.0,29.97,NNE,33,0.0,1.0,86,0.00,,,0.00,0,weatherlink.com 1.10,2013-07-28 08:40:00,
2013-07-28 03:55:00,68.7,64.0,29.97,NE,39,0.0,5.0,86,0.00,,,0.00,0,weatherlink.com 1.10,2013-07-28 08:55:00,
2013-07-28 04:10:00,69.1,64.0,29.97,NE,38,0.0,4.0,84,0.00,,,0.00,0,weatherlink.com 1.10,2013-07-28 09:10:00,
2013-07-28 04:25:00,69.2,64.0,29.97,NE,47,3.0,4.0,83,0.00,,,0.00,0,weatherlink.com 1.10,2013-07-28 09:25:00,
2013-07-28 04:40:00,69.2,64.0,29.97,NE,36,0.0,4.0,83,0.00,,,0.00,0,weatherlink.com 1.10,2013-07-28 09:40:00,
2013-07-28 04:55:00,68.8,64.0,29.97,NE,36,1.0,3.0,83,0.00,,,0.00,0,weatherlink.com 1.10,2013-07-28 09:55:00,
2013-07-28 05:10:00,68.5,63.0,29.96,NNW,333,0.0,4.0,83,0.00,,,0.00,0,weatherlink.com 1.10,2013-07-28 10:10:00,
2013-07-28 05:25:00,68.4,63.0,29.96,NE,34,1.0,4.0,83,0.00,,,0.00,0,weatherlink.com 1.10,2013-07-28 10:25:00,
2013-07-28 05:40:00,68.4,63.0,29.97,ENE,59,2.0,5.0,83,0.00,,,0.00,0,weatherlink.com 1.10,2013-07-28 10:40:00,
2013-07-28 05:55:00,68.3,63.0,29.97,NE,46,0.0,3.0,83,0.00,,,0.00,5,weatherlink.com 1.10,2013-07-28 10:55:00,
2013-07-28 06:10:00,68.2,63.0,29.98,NE,45,4.0,6.0,83,0.00,,,0.00,14,weatherlink.com 1.10,2013-07-28 11:10:00,
2013-07-28 06:25:00,68.3,63.0,29.99,NE,39,4.0,8.0,83,0.00,,,0.00,30,weatherlink.com 1.10,2013-07-28 11:25:00,
2013-07-28 06:40:00,68.4,63.0,29.99,NE,56,0.0,6.0,83,0.00,,,0.00,49,weatherlink.com 1.10,2013-07-28 11:40:00,
2013-07-28 06:55:00,68.4,63.0,30.00,East,79,2.0,7.0,83,0.00,,,0.00,91,weatherlink.com 1.10,2013-07-28 11:55:00,
2013-07-28 07:10:00,68.8,63.0,30.00,East,83,3.0,6.0,82,0.00,,,0.00,139,weatherlink.com 1.10,2013-07-28 12:10:00,
2013-07-28 07:25:00,69.1,63.0,30.01,NE,53,2.0,5.0,80,0.00,,,0.00,79,weatherlink.com 1.10,2013-07-28 12:25:00,
2013-07-28 07:40:00,68.9,63.0,30.02,ENE,68,1.0,5.0,81,0.00,,,0.00,76,weatherlink.com 1.10,2013-07-28 12:40:00,
2013-07-28 08:12:00,68.8,63.0,30.02,NE,38,1.0,6.0,81,0.00,,,0.00,91,weatherlink.com 1.10,2013-07-28 13:12:00,
2013-07-28 08:26:00,68.8,62.0,30.03,NE,43,1.0,7.0,80,0.00,,,0.00,116,weatherlink.com 1.10,2013-07-28 13:26:00,
2013-07-28 08:42:00,69.1,62.0,30.04,East,82,1.0,5.0,79,0.00,,,0.00,139,weatherlink.com 1.10,2013-07-28 13:42:00,
2013-07-28 09:26:00,70.1,63.0,30.03,ENE,68,0.0,5.0,77,0.00,,,0.00,216,weatherlink.com 1.10,2013-07-28 14:26:00,
2013-07-28 09:42:00,70.7,63.0,30.03,East,81,2.0,7.0,77,0.00,,,0.00,388,weatherlink.com 1.10,2013-07-28 14:42:00,
2013-07-28 09:58:00,72.0,63.0,30.02,ESE,111,7.0,8.0,73,0.00,,,0.00,464,weatherlink.com 1.10,2013-07-28 14:58:00,
2013-07-28 10:13:00,72.7,64.0,30.03,ENE,73,3.0,8.0,73,0.00,,,0.00,352,weatherlink.com 1.10,2013-07-28 15:13:00,
2013-07-28 10:28:00,72.6,62.0,30.04,East,90,5.0,9.0,69,0.00,,,0.00,364,weatherlink.com 1.10,2013-07-28 15:28:00,
2013-07-28 10:43:00,73.5,63.0,30.05,NE,44,4.0,9.0,70,0.00,,,0.00,526,weatherlink.com 1.10,2013-07-28 15:43:00,
2013-07-28 10:58:00,74.4,64.0,30.05,SE,139,1.0,8.0,69,0.00,,,0.00,452,weatherlink.com 1.10,2013-07-28 15:58:00,
2013-07-28 11:13:00,75.6,63.0,30.04,North,10,3.0,7.0,66,0.00,,,0.00,942,weatherlink.com 1.10,2013-07-28 16:13:00,
2013-07-28 11:30:00,75.6,63.0,30.04,SE,139,3.0,7.0,66,0.00,,,0.00,499,weatherlink.com 1.10,2013-07-28 16:30:00,
2013-07-28 11:45:00,75.2,63.0,30.04,East,82,1.0,8.0,66,0.00,,,0.00,476,weatherlink.com 1.10,2013-07-28 16:45:00,
2013-07-28 12:00:00,75.7,64.0,30.04,NNW,328,2.0,6.0,68,0.00,,,0.00,707,weatherlink.com 1.10,2013-07-28 17:00:00,
2013-07-28 12:15:00,76.4,64.0,30.03,East,89,3.0,8.0,66,0.00,,,0.00,559,weatherlink.com 1.10,2013-07-28 17:15:00,
2013-07-28 12:30:00,76.8,65.0,30.04,NNE,15,2.0,8.0,67,0.00,,,0.00,963,weatherlink.com 1.10,2013-07-28 17:30:00,
2013-07-28 12:45:00,77.3,64.0,30.03,ESE,109,3.0,7.0,64,0.00,,,0.00,849,weatherlink.com 1.10,2013-07-28 17:45:00,
2013-07-28 13:00:00,77.2,65.0,30.03,ENE,74,3.0,8.0,65,0.00,,,0.00,898,weatherlink.com 1.10,2013-07-28 18:00:00,
2013-07-28 13:15:00,77.8,66.0,30.02,East,81,1.0,8.0,66,0.00,,,0.00,889,weatherlink.com 1.10,2013-07-28 18:15:00,
2013-07-28 13:32:00,78.5,66.0,30.03,NNW,347,3.0,5.0,65,0.00,,,0.00,900,weatherlink.com 1.10,2013-07-28 18:32:00,
2013-07-28 13:46:00,78.9,65.0,30.02,NNW,330,2.0,6.0,62,0.00,,,0.00,881,weatherlink.com 1.10,2013-07-28 18:46:00,
2013-07-28 14:16:00,79.8,66.0,30.01,NW,317,4.0,5.0,63,0.00,,,0.00,471,weatherlink.com 1.10,2013-07-28 19:16:00,
2013-07-28 14:47:00,81.2,67.0,30.01,ESE,109,2.0,5.0,62,0.00,,,0.00,907,weatherlink.com 1.10,2013-07-28 19:47:00,
2013-07-28 15:02:00,81.3,65.0,30.00,NNE,27,2.0,4.0,58,0.00,,,0.00,640,weatherlink.com 1.10,2013-07-28 20:02:00,
2013-07-28 15:18:00,81.3,66.0,30.00,NNW,328,5.0,7.0,61,0.00,,,0.00,420,weatherlink.com 1.10,2013-07-28 20:18:00,
2013-07-28 15:32:00,81.7,67.0,30.01,North,5,2.0,4.0,61,0.00,,,0.00,642,weatherlink.com 1.10,2013-07-28 20:32:00,
2013-07-28 15:47:00,81.5,66.0,30.00,NE,54,4.0,5.0,59,0.00,,,0.00,360,weatherlink.com 1.10,2013-07-28 20:47:00,
2013-07-28 16:02:00,81.4,66.0,30.00,NE,48,1.0,3.0,59,0.00,,,0.00,343,weatherlink.com 1.10,2013-07-28 21:02:00,
2013-07-28 16:17:00,81.3,66.0,30.01,ENE,62,1.0,3.0,59,0.00,,,0.00,265,weatherlink.com 1.10,2013-07-28 21:17:00,
2013-07-28 16:32:00,81.5,66.0,30.00,East,91,3.0,4.0,60,0.00,,,0.00,475,weatherlink.com 1.10,2013-07-28 21:32:00,
2013-07-28 16:47:00,81.0,66.0,30.00,ESE,115,2.0,6.0,61,0.00,,,0.00,211,weatherlink.com 1.10,2013-07-28 21:47:00,
2013-07-28 17:02:00,80.1,66.0,30.00,SE,133,2.0,3.0,62,0.00,,,0.00,234,weatherlink.com 1.10,2013-07-28 22:02:00,
2013-07-28 17:17:00,80.3,67.0,30.00,NE,43,2.0,6.0,64,0.00,,,0.00,202,weatherlink.com 1.10,2013-07-28 22:17:00,
2013-07-28 17:32:00,79.3,67.0,30.01,NE,51,3.0,6.0,66,0.00,,,0.00,185,weatherlink.com 1.10,2013-07-28 22:32:00,
2013-07-28 17:47:00,78.8,67.0,30.00,NE,43,1.0,4.0,67,0.00,,,0.00,192,weatherlink.com 1.10,2013-07-28 22:47:00,
2013-07-28 18:02:00,78.5,67.0,30.01,ENE,67,4.0,4.0,67,0.00,,,0.00,156,weatherlink.com 1.10,2013-07-28 23:02:00,
2013-07-28 18:17:00,78.0,67.0,30.01,NE,45,1.0,5.0,68,0.00,,,0.00,120,weatherlink.com 1.10,2013-07-28 23:17:00,
2013-07-28 18:32:00,77.6,66.0,30.01,NE,38,1.0,5.0,68,0.00,,,0.00,84,weatherlink.com 1.10,2013-07-28 23:32:00,
2013-07-28 18:47:00,77.2,66.0,30.03,ENE,60,0.0,4.0,69,0.00,,,0.00,130,weatherlink.com 1.10,2013-07-28 23:47:00,
2013-07-28 19:02:00,77.0,66.0,30.03,NE,54,2.0,4.0,69,0.00,,,0.00,77,weatherlink.com 1.10,2013-07-29 00:02:00,
2013-07-28 19:17:00,76.7,66.0,30.03,NE,54,1.0,3.0,70,0.00,,,0.00,54,weatherlink.com 1.10,2013-07-29 00:17:00,
2013-07-28 19:32:00,76.4,66.0,30.03,ESE,109,2.0,2.0,71,0.00,,,0.00,25,weatherlink.com 1.10,2013-07-29 00:32:00,
2013-07-28 19:47:00,75.4,66.0,30.04,ESE,109,0.0,1.0,72,0.00,,,0.00,9,weatherlink.com 1.10,2013-07-29 00:47:00,
2013-07-28 20:03:00,74.6,67.0,30.04,ESE,109,0.0,1.0,76,0.00,,,0.00,0,weatherlink.com 1.10,2013-07-29 01:03:00,
2013-07-28 20:18:00,73.7,65.0,30.03,ESE,109,0.0,0.0,75,0.00,,,0.00,0,weatherlink.com 1.10,2013-07-29 01:18:00,
2013-07-28 20:33:00,73.1,65.0,30.03,ESE,109,0.0,1.0,75,0.00,,,0.00,0,weatherlink.com 1.10,2013-07-29 01:33:00,
2013-07-28 20:48:00,72.9,64.0,30.03,ESE,109,0.0,0.0,74,0.00,,,0.00,0,weatherlink.com 1.10,2013-07-29 01:48:00,
2013-07-28 21:03:00,72.8,65.0,30.04,ESE,109,0.0,1.0,77,0.00,,,0.00,0,weatherlink.com 1.10,2013-07-29 02:03:00,
2013-07-28 21:18:00,72.1,65.0,30.04,ESE,109,1.0,2.0,78,0.00,,,0.00,0,weatherlink.com 1.10,2013-07-29 02:18:00,
2013-07-28 21:49:00,71.0,64.0,30.05,East,97,3.0,3.0,79,0.00,,,0.00,0,weatherlink.com 1.10,2013-07-29 02:49:00,
2013-07-28 22:04:00,70.8,63.0,30.06,East,97,2.0,2.0,77,0.00,,,0.00,0,weatherlink.com 1.10,2013-07-29 03:04:00,
2013-07-28 22:19:00,70.7,64.0,30.06,East,97,0.0,3.0,78,0.00,,,0.00,0,weatherlink.com 1.10,2013-07-29 03:19:00,
2013-07-28 22:34:00,70.3,64.0,30.06,East,97,0.0,1.0,79,0.00,,,0.00,0,weatherlink.com 1.10,2013-07-29 03:34:00,
2013-07-28 22:49:00,69.7,63.0,30.06,East,97,0.0,0.0,79,0.00,,,0.00,0,weatherlink.com 1.10,2013-07-29 03:49:00,
2013-07-28 23:04:00,69.6,63.0,30.06,East,97,0.0,1.0,80,0.00,,,0.00,0,weatherlink.com 1.10,2013-07-29 04:04:00,
2013-07-28 23:19:00,69.4,63.0,30.05,East,97,0.0,2.0,80,0.00,,,0.00,0,weatherlink.com 1.10,2013-07-29 04:19:00,
2013-07-28 23:34:00,69.2,63.0,30.05,East,97,0.0,2.0,81,0.00,,,0.00,0,weatherlink.com 1.10,2013-07-29 04:34:00,
2013-07-28 23:49:00,69.3,63.0,30.05,ENE,78,0.0,1.0,81,0.00,,,0.00,0,weatherlink.com 1.10,2013-07-29 04:49:00,